Skip Page Navigation
NASA JPL Caltech
NASA Logo - Jet Propulsion Laboratory + View the NASA Portal
+ Near-Earth Object (NEO) Program
Search JPL
JPL Home Earth Solar System Stars & Galaxies Technology
JPL Solar System Dynamics
BODIES ORBITS EPHEMERIDES TOOLS PHYSICAL DATA DISCOVERY FAQ SITE MAP
JPL Small-Body Database Browser
Search: [ help ]  
30789 (1988 RB6)
Classification: Main-belt Asteroid          SPK-ID: 2030789
Ephemeris | Orbit Diagram | Orbital Elements | Physical Parameters | Discovery Circumstances ]

[ show orbit diagram ]
Orbital Elements at Epoch 2456800.5 (2014-May-23.0) TDB
Reference: JPL 9 (heliocentric ecliptic J2000)
 Element Value Uncertainty (1-sigma)   Units 
e .2538748560791506 5.0819e-08  
a 2.561679095987332 1.6496e-08 AU
q 1.911333184172579 1.3019e-07 AU
i 12.59451369526757 5.8644e-06 deg
node 162.4566242330318 3.2147e-05 deg
peri 161.4404824777779 3.641e-05 deg
M 111.3891861797171 2.0842e-05 deg
tp 2456337.131994389702
(2013-Feb-13.63199439)
8.4526e-05 JED
period 1497.56442021732
4.10
1.4465e-05
3.96e-08
d
yr
n .2403903265461918 2.322e-09 deg/d
Q 3.212025007802084 2.0684e-08 AU
  Orbit Determination Parameters
   # obs. used (total)      717  
   data-arc span      9338 days (25.57 yr)  
   first obs. used      1988-08-18  
   last obs. used      2014-03-13  
   planetary ephem.      DE431  
   SB-pert. ephem.      SB431-BIG16  
   condition code      0  
   fit RMS      .5213  
   data source      ORB  
   producer      Otto Matic  
   solution date      2014-Jun-16 14:28:19  

Additional Information
 Earth MOID = .903025 AU 
 T_jup = 3.356 
[ show covariance matrix ]

Ephemeris | Orbit Diagram | Orbital Elements | Physical Parameters | Discovery Circumstances ]

Physical Parameter Table
Parameter Symbol Value Units Sigma Reference Notes
absolute magnitude H 14.2 mag n/a MPO250508  

30789 (1988 RB6)          Discovered 1988-Sep-03 by Debehogne, H. at La Silla (809)
Reference: 20011130/Numbers.arcLast Updated: 2004-04-19

Alternate Designations
 1988 RB6 = 1992 SX25 = 1995 EJ6 
Ephemeris | Orbit Diagram | Orbital Elements | Physical Parameters | Discovery Circumstances ]
ABOUT SSD CREDITS/AWARDS PRIVACY/COPYRIGHT GLOSSARY LINKS
FirstGov 2014-Jul-29 02:36 UT
(server date/time)  
NASA Home Page
Site Manager:   Donald K. Yeomans
Webmaster  Alan B. Chamberlin